Location: Newark
(27.9675°N, 86.8869°E)
Time: 18:57:11
(UTC+00:00)

Vanguard 3 - Pass Details

Date: 31 October 2019
Orbit: 508 x 3263 km, 33.3° (Epoch: 11 November)

Event Time Altitude Azimuth Distance (km) Brightness Sun altitude
Rises 09:49:52 0° 205° (SSW) 7,020 12.8 19.5°
Reaches altitude 10° 09:56:36 10° 192° (SSW) 5,675 12.1 18.2°
Maximum altitude 10:07:37 22° 150° (SSE) 3,929 10.7 16.1°
Drops below altitude 10° 10:15:36 10° 105° (ESE) 4,028 10.3 14.5°
Sets 10:19:14 0° 90° (E) 4,598 10.4 13.7°
